EW8956 Weather Reports


Display with metric or nautical units.
time (UTC)temp
F
wind
direction
speed
MPH
gust
MPH
rain 1hr
in
rain 24hr
in
rain mn
in
humidity
%
barometer
mb
20260905120050 73 0 0.0 0.0 0.00 0.00 0.00 90 1014.4
20260905114548 72 0 0.0 0.0 0.00 0.00 0.00 92 1014.2
20260905113056 71 0 0.0 0.0 0.00 0.00 0.00 92 1014.0
20260905111641 71 0 0.0 0.0 0.00 0.00 0.00 91 1013.9
20260905110051 71 0 0.0 0.0 0.00 0.00 0.00 91 1013.9
20260905104554 71 0 0.0 0.0 0.00 0.00 0.00 91 1013.7
20260905103056 71 0 0.0 0.0 0.00 0.00 0.00 91 1013.6
20260905101603 71 0 0.0 0.0 0.00 0.00 0.00 91 1013.6
20260905100053 72 0 0.0 0.0 0.00 0.00 0.00 91 1013.4
20260905094600 72 0 0.0 0.0 0.00 0.00 0.00 90 1013.5
20260905093102 72 0 0.0 0.0 0.00 0.00 0.00 89 1013.3
20260905091552 73 0 0.0 0.0 0.00 0.00 0.00 89 1013.4
20260905090053 73 0 0.0 0.0 0.00 0.00 0.00 88 1013.4
20260905084553 73 0 0.0 0.0 0.00 0.00 0.00 88 1013.4
20260905083045 73 0 0.0 0.0 0.00 0.00 0.00 88 1013.6
20260905081552 74 0 0.0 0.0 0.00 0.00 0.00 87 1013.9
20260905080100 74 0 0.0 0.0 0.00 0.00 0.00 87 1013.9
20260905074549 75 0 0.0 0.0 0.00 0.00 0.00 86 1014.0
20260905073058 75 0 0.0 0.0 0.00 0.00 0.00 83 1013.7
20260905071555 75 0 0.0 0.0 0.00 0.00 0.00 82 1013.7
20260905070055 75 0 0.0 0.0 0.00 0.00 0.00 83 1014.8
20260905064551 75 0 0.0 0.0 0.00 0.00 0.00 84 1014.9
20260905063059 75 0 0.0 0.0 0.00 0.00 0.00 84 1015.1
20260905061558 75 0 0.0 0.0 0.00 0.00 0.00 84 1015.0
20260905060059 75 0 0.0 0.0 0.00 0.00 0.00 83 1015.5
20260905054551 76 0 0.0 0.0 0.00 0.00 0.00 83 1015.8
20260905053111 76 0 0.0 0.0 0.00 0.00 0.00 82 1015.8
20260905051558 76 0 0.0 0.0 0.00 0.00 0.00 81 1015.9
20260905050056 76 0 0.0 0.0 0.00 0.00 0.00 81 1016.1
20260905044603 76 0 0.0 0.0 0.00 0.00 0.00 81 1016.3
20260905043102 76 0 0.0 0.0 0.00 0.00 0.00 80 1016.4
20260905041601 76 0 0.0 3.0 0.00 0.00 0.00 79 1016.2
20260905040058 76 98 0.0 3.0 0.00 0.00 0.00 80 1016.4
20260905034605 76 0 0.0 0.0 0.00 0.00 0.00 80 1016.2
20260905033115 76 0 0.0 0.0 0.00 0.00 0.00 78 1015.8
20260905031602 76 0 0.0 0.0 0.00 0.00 0.00 78 1015.7
20260905030105 76 0 0.0 0.0 0.00 0.00 0.00 76 1015.6
20260905024556 77 0 0.0 0.0 0.00 0.00 0.00 75 1015.6
20260905023111 77 0 0.0 0.0 0.00 0.00 0.00 75 1015.6
20260905021552 77 0 0.0 0.0 0.00 0.00 0.00 75 1015.7
20260905020052 77 0 0.0 0.0 0.00 0.00 0.00 75 1015.7
20260905014601 77 0 0.0 4.0 0.00 0.00 0.00 74 1015.3
20260905013057 77 0 0.0 2.0 0.00 0.00 0.00 74 1015.0
20260905011556 78 0 0.0 3.0 0.00 0.00 0.00 73 1015.0
20260905010105 78 0 0.0 0.0 0.00 0.00 0.00 73 1014.9
20260905004617 78 0 0.0 2.0 0.00 0.00 0.00 72 1015.1
20260905003056 78 0 0.0 2.0 0.00 0.00 0.00 72 1015.0
20260905001558 78 0 0.0 0.0 0.00 0.00 0.00 72 1015.6
20260905000105 78 0 0.0 0.0 0.00 0.00 0.00 72 1016.2
20260904234548 78 121 0.0 7.0 0.00 0.00 0.00 71 1016.3
20260904233103 79 124 1.0 7.0 0.00 0.00 0.00 69 1016.6
20260904231602 80 82 3.0 9.0 0.00 0.00 0.00 62 1016.0
20260904230108 81 36 1.0 11.0 0.00 0.00 0.00 62 1015.8
20260904224548 82 111 7.0 16.0 0.00 0.00 0.00 59 1016.3
20260904223057 86 0 0.0 10.0 0.00 0.00 0.00 60 1016.3
20260904221554 91 115 1.0 7.0 0.00 0.00 0.00 53 1015.8
20260904220052 93 0 0.0 0.0 0.00 0.00 0.00 52 1014.9
20260904214550 94 0 0.0 4.0 0.00 0.00 0.00 51 1014.4
20260904213056 94 0 0.0 3.0 0.00 0.00 0.00 50 1014.2
20260904211552 95 0 0.0 1.0 0.00 0.00 0.00 49 1014.5
20260904210048 96 0 1.0 6.0 0.00 0.00 0.00 46 1014.6
20260904204554 97 0 2.0 9.0 0.00 0.00 0.00 44 1014.5
20260904203053 98 150 0.0 8.0 0.00 0.00 0.00 46 1014.4
20260904201558 97 0 0.0 4.0 0.00 0.00 0.00 47 1014.3
20260904200110 98 0 1.0 6.0 0.00 0.00 0.00 42 1014.6
20260904194556 98 0 0.0 3.0 0.00 0.00 0.00 44 1014.9
20260904193053 98 263 0.0 4.0 0.00 0.00 0.00 41 1015.2
20260904191550 98 0 0.0 6.0 0.00 0.00 0.00 41 1015.6
20260904190057 97 0 0.0 3.0 0.00 0.00 0.00 44 1015.7
20260904184552 96 0 0.0 4.0 0.00 0.00 0.00 47 1016.0
20260904183107 97 0 0.0 0.0 0.00 0.00 0.00 47 1016.2
20260904181600 96 0 0.0 2.0 0.00 0.00 0.00 48 1016.3
20260904180057 96 336 0.0 3.0 0.00 0.00 0.00 47 1016.5
20260904174601 96 0 0.0 5.0 0.00 0.00 0.00 49 1016.7
20260904173102 96 0 0.0 4.0 0.00 0.00 0.00 51 1016.9
20260904171608 95 240 1.0 5.0 0.00 0.00 0.00 50 1017.1
20260904170051 94 0 0.0 2.0 0.00 0.00 0.00 55 1017.1
20260904164600 95 0 0.0 0.0 0.00 0.00 0.00 55 1017.3
20260904163100 93 0 0.0 1.0 0.00 0.00 0.00 55 1017.5
20260904161554 92 0 0.0 2.0 0.00 0.00 0.00 58 1017.8
20260904160054 92 0 0.0 5.0 0.00 0.00 0.00 57 1017.9
20260904154550 90 0 0.0 0.0 0.00 0.00 0.00 60 1018.0
20260904153105 91 220 0.0 2.0 0.00 0.00 0.00 63 1018.1
20260904151555 90 0 0.0 2.0 0.00 0.00 0.00 63 1018.1
20260904150051 89 258 0.0 5.0 0.00 0.00 0.00 65 1018.2
20260904144549 89 0 0.0 3.0 0.00 0.00 0.00 67 1018.2
20260904143045 86 0 0.0 4.0 0.00 0.00 0.00 68 1018.3
20260904141555 85 200 1.0 8.0 0.00 0.00 0.00 70 1018.3
20260904140052 84 0 0.0 4.0 0.00 0.00 0.00 71 1018.3
20260904134557 84 0 0.0 1.0 0.00 0.00 0.00 73 1018.1
20260904133053 82 0 0.0 3.0 0.00 0.00 0.00 74 1018.4
20260904131600 81 0 0.0 0.0 0.00 0.00 0.00 77 1018.4
20260904130049 80 0 0.0 2.0 0.00 0.00 0.00 78 1018.5
20260904124554 79 0 0.0 5.0 0.00 0.00 0.00 79 1018.4
20260904123054 79 0 0.0 4.0 0.00 0.00 0.00 81 1018.4
20260904121549 77 0 0.0 5.0 0.00 0.00 0.00 83 1018.3